Regional Weather Roundup
Issued by NWS

Home | Current Version | Previous Version | Graphics & Text | Print | Product List | Glossary On
Versions: 1 2 3 4 5 6 7 8 9 10 11 12 13 14 15 16 17 18 19 20 21 22 23 24 25 26 27 28 29 30 31 32 33 34 35 36 37 38 39 40 41 42 43 44 45 46 47 48 49 50
000
ASUS45 KBOU 262110
RWRCO

WEATHER ROUNDUP FOR COLORADO
NATIONAL WEATHER SERVICE DENVER/BOULDER CO
300 PM MDT MON SEP 26 2016

NOTE: "FAIR" INDICATES FEW OR NO CLOUDS BELOW 12000 FEET WITH NO
SIGNIFICANT WEATHER AND/OR OBSTRUCTIONS TO VISIBILITY.

COZ001>005-013-030-031-262200-
...NORTHWEST COLORADO...

CITY           SKY/WX    TMP DP  RH WIND       PRES   REMARKS
CRAIG          FAIR      71  30  21 W7        30.40F
HAYDEN         FAIR      68  28  22 W8        30.42S
MEEKER         FAIR      70  33  25 W8        30.40F
MOUNT WERNER   NOT AVBL
STEAMBOAT SPGS FAIR      68  32  26 NW6       30.42F
WALDEN           N/A     64  27  24 SW5       30.49F
$$

COZ006>008-011-262200-
...WEST CENTRAL VALLEYS...

CITY           SKY/WX    TMP DP  RH WIND       PRES   REMARKS
GRAND JUNCTION FAIR      74  37  26 W10       30.32F
MONTROSE       FAIR      70  36  28 NW5       30.37F
EAGLE          SUNNY     72  28  20 CALM      30.39F
RIFLE          FAIR      72  32  23 NW5       30.35F
DELTA          FAIR      75  36  23 CALM      30.33F
NUCLA          FAIR      72  30  21 W6        30.40F
$$

COZ017>023-064>068-262200-
...SOUTHWEST COLORADO...

CITY           SKY/WX    TMP DP  RH WIND       PRES   REMARKS
DURANGO        FAIR      70  33  25 W6G16     30.38F
CORTEZ         FAIR      73  36  25 SW6       30.35F
PAGOSA SPRINGS FAIR      69  32  25 W12       30.43F
TELLURIDE      FAIR      64  33  31 W14       30.52F
WOLF CREEK PAS FAIR      52  30  43 SW10G22   30.70F
$$

COZ009-010-012-014-032>034-037-058>063-262200-
...CENTRAL COLORADO...

CITY           SKY/WX    TMP DP  RH WIND       PRES   REMARKS
ASPEN          FAIR      69  29  22 NW10G16   30.43F
BUENA VISTA    FAIR      71  21  15 NE5       30.41F
COPPER MTN     FAIR      59  19  21 NW13G18   30.69F
BERTHOUD PASS  FAIR      43  30  61 N16G24    30.73S
COTTONWOOD PAS FAIR      70  21  16 E6        30.54F
GUNNISON       FAIR      69  25  19 CALM      30.43F
KREMMLING      FAIR      72  18  13 W3        30.44F
LEADVILLE      FAIR      65  17  15 NE6G17    30.52F
MONARCH PASS   FAIR      54  27  35 W6        30.79F
SALIDA         FAIR      75  20  12 E7        30.45F
SUNLIGHT       FAIR      54  34  47 W5        30.67S
WILKERSON PASS FAIR      55  12  18 E3        30.68S
$$

COZ069>075-262200-
...SAN LUIS VALLEY/SANGRE DE CRISTO MOUNTAINS...

CITY           SKY/WX    TMP DP  RH WIND       PRES   REMARKS
ALAMOSA        FAIR      72  25  17 MISG      30.41F
LA VETA PASS   FAIR      59  32  36 MISG      30.59F
SAGUACHE       NOT AVBL
$$

COZ035-036-038>040-262200-
...NORTHERN COLORADO FRONT RANGE...

CITY           SKY/WX    TMP DP  RH WIND       PRES   REMARKS
DENVER INTL AP FAIR      75  28  17 NE8       30.33F
DMNS CITY PARK   N/A     76  27  16 NE6G15    30.32S
AURORA         MOSUNNY   74  29  18 E6        30.34F
FRONT RANGE AP MOSUNNY   77  28  16 NE6       30.35
ERIE MUNI ARPT FAIR      75  24  15 E3        30.32S
BOULDER MUN AP FAIR      75  30  19 CALM      30.32F
CENTENNIAL     FAIR      75  28  17 NE7G20    30.34F
BROOMFIELD     SUNNY     75  28  17 NE6       30.35F
FORT COLLINS   FAIR      73  30  20 S9        30.30F
LONGMONT       FAIR      78  32  18 E6        30.33F
$$

COZ041-046-047-076>085-087-088-262200-
...PIKES PEAK/PALMER DIVIDE AND SOUTHERN FOOTHILLS...

CITY           SKY/WX    TMP DP  RH WIND       PRES   REMARKS
COLO. SPRINGS  FAIR      75  24  15 CALM      30.36F
A. F. ACADEMY  FAIR      73  26  17 SE8       30.37F
SCHRIEVER AFB  NOT AVBL
ELLICOTT       NOT AVBL
FALCON         FAIR      73  25  17 E3        30.41F
FORT CARSON    FAIR      74  27  17 E9        30.34F
LIMON          FAIR      75  30  19 N9        30.34F
MONUMENT HILL  FAIR      70  27  19 SE3       30.42F
TRINIDAD       FAIR      73  29  19 E6        30.35F
$$

COZ042>045-048>051-090-091-262200-
...NORTHEAST COLORADO...

CITY           SKY/WX    TMP DP  RH WIND       PRES   REMARKS
GREELEY ARPT   FAIR      73  34  23 CALM      30.31F
AKRON          FAIR      74  34  23 NW8       30.31F
BURLINGTON     FAIR      77  32  19 NW12G17   30.28F
WRAY           NOT AVBL
STERLING       FAIR      77  37  24 NE7       30.26F
HOLYOKE        FAIR      79  36  21 NW12G22   30.26F
FORT MORGAN    FAIR      79  30  17 NW12G23   30.30F
$$

COZ086-089-092>099-262200-
...SOUTHEAST COLORADO...

CITY           SKY/WX    TMP DP  RH WIND       PRES   REMARKS
PUEBLO         FAIR      78  30  17 SE10G16   30.28F
LA JUNTA       FAIR      78  32  18 MISG      30.29F
LAMAR          FAIR      79  33  19 VRB6      30.25F
SPRINGFIELD    NOT AVBL
$$



USA.gov is the U.S. government's official web portal to all federal, state and local government web resources and services.